Las Americas, Dominican Republic

10:44 PM AST on February 10, 2016 (GMT -0400)
Las Americas International

Weather History for MDSD - October, 2013

Change the Weather History Date:

Saturday, October 26, 2013

  Actual Average Record
Temperature  
Mean Temperature 81 °F -  
Max Temperature 89 °F 87 °F 91 °F (2008)
Min Temperature 73 °F 70 °F 67 °F (2015)
Cooling Degree Days 16    
Growing Degree Days 31 (Base 50)    
Moisture  
Dew Point 74 °F    
Average Humidity 82    
Maximum Humidity 100    
Minimum Humidity 56    
Precipitation  
Precipitation 0.00 in 0.14 in - ()
Sea Level Pressure  
Sea Level Pressure 29.94 in    
Wind  
Wind Speed 5 mph ()    
Max Wind Speed 13 mph    
Max Gust Speed -    
Visibility 6.8 miles    
Events Thunderstorm    
Averages and records for this station are not official NWS values.
T = Trace of Precipitation, MM = Missing Value Source: Averaged Metar Reports

Daily Weather History Graph

Daily Weather History Graph

Search for Another Location

Airport or City:

Trip Planner

Search our weather history database for the weather conditions in past years. The results will help you decide how hot, cold, wet, or windy it might be!

Date:

Astronomy

Oct. 26, 2013 Rise Set
Actual Time 6:36 AM AST 6:08 PM AST
Civil Twilight 6:13 AM AST 6:31 PM AST
Nautical Twilight 5:48 AM AST 6:56 PM AST
Astronomical Twilight 5:22 AM AST 7:22 PM AST
Moon No Moon Rise 12:43 PM AST (10/26)
Length of Visible Light 12h 17m
Length of Day
11h 32m
Waning Gibbous, 53% of the Moon is Illuminated
Oct 26
Waning Gibbous
Oct 26
Last Quarter
Nov 3
New
Nov 10
First Quarter
Nov 17
Full

Hourly Weather History & Observations

Time (AST) Temp. Heat Index Dew Point Humidity Pressure Visibility Wind Dir Wind Speed Gust Speed Precip Events Conditions
12:00 AM 77.0 °F - 75.2 °F 94% 29.98 in 6.2 mi NNE 4.6 mph - N/A   Partly Cloudy
1:00 AM 75.2 °F - 73.4 °F 94% 29.98 in 6.2 mi NE 4.6 mph - N/A   Partly Cloudy
2:00 AM 75.2 °F - 73.4 °F 94% 29.95 in 6.2 mi NE 4.6 mph - N/A Thunderstorm Light Thunderstorm
3:00 AM 75.2 °F - 73.4 °F 94% 29.92 in 6.2 mi NNE 4.6 mph - N/A Thunderstorm Light Thunderstorm
4:00 AM 75.2 °F - 73.4 °F 94% 29.92 in 6.2 mi NNE 4.6 mph - N/A Thunderstorm Thunderstorm
5:00 AM 74 °F - 73 °F 97% 29.94 in 7 mi Calm Calm - -   Partly Cloudy
5:00 AM 75.2 °F - 73.4 °F 94% 29.92 in 6.2 mi Calm Calm - N/A Thunderstorm Light Thunderstorm
6:00 AM 73.4 °F - 73.4 °F 100% 29.92 in 6.2 mi Calm Calm - N/A   Partly Cloudy
7:00 AM 73.4 °F - 73.4 °F 100% 29.95 in 6.2 mi Calm Calm - N/A   Scattered Clouds
8:00 AM 75 °F - 73 °F 90% 29.96 in 9 mi ENE 4.5 mph - -   Widespread Dust
8:00 AM 75.2 °F - 73.4 °F 94% 29.95 in 6.2 mi ENE 4.6 mph - N/A   Scattered Clouds
9:00 AM 78.8 °F - 75.2 °F 89% 29.98 in 6.2 mi NE 5.8 mph - N/A   Scattered Clouds
10:00 AM 82.4 °F 89.5 °F 75.2 °F 79% 29.98 in 6.2 mi East 11.5 mph - N/A   Scattered Clouds
11:00 AM 85 °F - 75 °F 66% 30.00 in 9 mi ESE 11.2 mph - -   Widespread Dust
11:00 AM 84.2 °F 92.3 °F 75.2 °F 74% 29.98 in 6.2 mi ESE 11.5 mph - N/A   Scattered Clouds
12:00 PM 86.0 °F 95.1 °F 75.2 °F 70% 29.98 in 6.2 mi ESE 11.5 mph - N/A   Scattered Clouds
1:00 PM 87.8 °F 99.7 °F 77.0 °F 70% 29.95 in 6.2 mi SE 11.5 mph - N/A   Mostly Cloudy
2:00 PM 89 °F - 75 °F 56% 29.98 in 9 mi SSE 8.9 mph - -   Widespread Dust
2:00 PM 87.8 °F 97.6 °F 75.2 °F 66% 29.92 in 6.2 mi SSE 9.2 mph - N/A   Mostly Cloudy
3:00 PM 87.8 °F 97.6 °F 75.2 °F 66% 29.89 in 6.2 mi SE 11.5 mph - N/A   Mostly Cloudy
4:00 PM 86.0 °F 93.4 °F 73.4 °F 66% 29.86 in 6.2 mi SE 12.7 mph - N/A   Mostly Cloudy
5:00 PM 85 °F - 75 °F 65% 29.88 in 9 mi SE 11.2 mph - -   Widespread Dust
5:00 PM 84.2 °F 92.3 °F 75.2 °F 74% 29.86 in 6.2 mi SE 11.5 mph - N/A   Mostly Cloudy
6:00 PM 82.4 °F 89.5 °F 75.2 °F 79% 29.89 in 6.2 mi SE 9.2 mph - N/A   Mostly Cloudy
7:00 PM 80.6 °F 85.4 °F 73.4 °F 79% 29.92 in 6.2 mi ESE 9.2 mph - N/A Thunderstorm Thunderstorm
8:00 PM 81 °F - 74 °F 75% 29.94 in 9 mi ESE 8.9 mph - -   Partly Cloudy
8:00 PM 80.6 °F 86.2 °F 75.2 °F 84% 2.98 in 6.2 mi ESE 9.2 mph - N/A   Mostly Cloudy
9:00 PM 78.8 °F - 73.4 °F 83% 2.98 in 6.2 mi ESE 5.8 mph - N/A Thunderstorm Light Thunderstorm
10:00 PM 78.8 °F - 73.4 °F 83% 2.98 in 6.2 mi East 5.8 mph - N/A Thunderstorm Light Thunderstorm
11:00 PM 78 °F - 74 °F 84% 29.98 in 9 mi Calm Calm - -   Widespread Dust
11:00 PM 78.8 °F - 73.4 °F 83% 29.98 in 6.2 mi Calm Calm - N/A   Mostly Cloudy